User: anonymous
Location: Unspecified
(0.0000°N, 0.0000°E)
Time: 23:57:59
(UTC+00:00)
Language:

USA 224 - Orbit

View from above orbital plane
View from above orbital plane
View from above satellite
View from above satellite

Ground track
Ground track

The orbit data is extracted from the following two-line orbital elements,

1 37348U 11002A   13218.02890103 0.00025500  00000-0  22911-3 0    00
2 37348  97.8840 329.4546 0544895 131.3860 228.6138 14.76443410    07
Epoch (UTC): 06 August 2013 00:41:37
Eccentricity: 0.0544895
inclination: 97.8840°
perigee height: 258 km
apogee height: 1023 km
right ascension of ascending node: 329.4546°
argument of perigee: 131.3860°
revolutions per day: 14.76443410
mean anomaly at epoch: 228.6138°
orbit number at epoch: 0

The dashed part of the orbit path shows where the satellite is in the earth's shadow,  

DLR